Time,TemperatureF,DewpointF,PressureIn,WindDirection,WindDirectionDegrees,WindSpeedMPH,WindSpeedGustMPH,Humidity,HourlyPrecipIn,Conditions,Clouds,dailyrainin,SoftwareType,DateUTC
2013-02-04 00:02:00,23.0,19.0,30.06,SSW,205,4.0,5.0,84,0.00,,,0.00,,2013-02-04 06:02:00,
2013-02-04 00:21:00,22.0,18.0,30.05,South,182,5.0,7.0,83,0.00,,,0.00,,2013-02-04 06:21:00,
2013-02-04 00:32:00,21.0,17.0,30.04,South,182,5.0,7.0,84,0.00,,,0.00,,2013-02-04 06:32:00,
2013-02-04 00:42:00,21.0,17.0,30.04,South,182,5.0,7.0,84,0.00,,,0.00,,2013-02-04 06:42:00,
2013-02-04 00:51:00,22.0,18.0,30.04,South,182,4.0,7.0,84,0.00,,,0.00,,2013-02-04 06:51:00,
2013-02-04 01:02:00,22.0,18.0,30.04,South,182,4.0,6.0,84,0.00,,,0.00,,2013-02-04 07:02:00,
2013-02-04 01:11:00,22.0,18.0,30.04,South,174,5.0,8.0,84,0.00,,,0.00,,2013-02-04 07:11:00,
2013-02-04 01:21:00,22.0,18.0,30.04,South,174,5.0,8.0,84,0.00,,,0.00,,2013-02-04 07:21:00,
2013-02-04 01:32:00,22.0,18.0,30.02,SSE,152,5.0,8.0,84,0.00,,,0.00,,2013-02-04 07:32:00,
2013-02-04 01:42:00,22.0,18.0,30.02,SSE,152,5.0,8.0,84,0.00,,,0.00,,2013-02-04 07:42:00,
2013-02-04 01:52:00,22.0,18.0,30.01,SE,146,6.0,8.0,84,0.00,,,0.00,,2013-02-04 07:52:00,
2013-02-04 02:01:00,22.0,18.0,29.99,SE,144,6.0,8.0,84,0.00,,,0.00,,2013-02-04 08:01:00,
2013-02-04 02:11:00,22.0,18.0,29.99,SE,144,6.0,8.0,84,0.00,,,0.00,,2013-02-04 08:11:00,
2013-02-04 02:21:00,22.0,17.0,29.99,SSE,150,6.0,8.0,82,0.00,,,0.00,,2013-02-04 08:21:00,
2013-02-04 02:31:00,22.0,17.0,29.99,SE,146,7.0,9.0,82,0.00,,,0.00,,2013-02-04 08:31:00,
2013-02-04 02:42:00,22.0,17.0,29.99,SE,146,7.0,9.0,82,0.00,,,0.00,,2013-02-04 08:42:00,
2013-02-04 02:52:00,22.0,18.0,29.98,SE,141,7.0,9.0,83,0.00,,,0.00,,2013-02-04 08:52:00,
2013-02-04 03:02:00,23.0,19.0,29.98,SE,144,7.0,9.0,83,0.00,,,0.00,,2013-02-04 09:02:00,
2013-02-04 03:11:00,23.0,19.0,29.97,SE,143,9.0,11.0,83,0.00,,,0.00,,2013-02-04 09:11:00,
2013-02-04 03:21:00,23.0,19.0,29.97,SE,143,9.0,11.0,83,0.00,,,0.00,,2013-02-04 09:21:00,
2013-02-04 03:31:00,23.0,19.0,29.96,SE,143,7.0,12.0,83,0.00,,,0.00,,2013-02-04 09:31:00,
2013-02-04 03:41:00,23.0,19.0,29.96,SE,143,7.0,12.0,83,0.00,,,0.00,,2013-02-04 09:41:00,
2013-02-04 03:51:00,23.0,19.0,29.96,SE,146,7.0,11.0,84,0.00,,,0.00,,2013-02-04 09:51:00,
2013-02-04 04:01:00,24.0,20.0,29.94,SSE,149,8.0,12.0,83,0.00,,,0.00,,2013-02-04 10:01:00,
2013-02-04 04:11:00,24.0,20.0,29.94,SSE,149,8.0,12.0,83,0.00,,,0.00,,2013-02-04 10:11:00,
2013-02-04 04:21:00,24.0,20.0,29.93,SE,142,9.0,12.0,83,0.00,,,0.00,,2013-02-04 10:21:00,
2013-02-04 04:32:00,25.0,20.0,29.92,SSE,147,12.0,16.0,81,0.00,,,0.00,,2013-02-04 10:32:00,
2013-02-04 04:41:00,25.0,20.0,29.92,SSE,147,12.0,16.0,81,0.00,,,0.00,,2013-02-04 10:41:00,
2013-02-04 04:51:00,25.0,20.0,29.91,SE,144,12.0,16.0,80,0.00,,,0.00,,2013-02-04 10:51:00,
2013-02-04 05:02:00,25.0,20.0,29.90,SSE,150,14.0,18.0,80,0.00,,,0.00,,2013-02-04 11:02:00,
2013-02-04 05:11:00,25.0,20.0,29.90,SSE,150,14.0,18.0,80,0.00,,,0.00,,2013-02-04 11:11:00,
2013-02-04 05:22:00,25.0,20.0,29.89,SSE,155,11.0,15.0,81,0.00,,,0.00,,2013-02-04 11:22:00,
2013-02-04 05:32:00,26.0,21.0,29.88,SSE,162,12.0,17.0,80,0.00,,,0.00,,2013-02-04 11:32:00,
2013-02-04 05:42:00,26.0,21.0,29.88,SSE,162,12.0,17.0,80,0.00,,,0.00,,2013-02-04 11:42:00,
2013-02-04 05:52:00,26.0,20.0,29.88,SSE,167,13.0,18.0,79,0.00,,,0.00,,2013-02-04 11:52:00,
2013-02-04 06:02:00,26.0,20.0,29.87,South,170,15.0,22.0,79,0.00,,,0.00,,2013-02-04 12:02:00,
2013-02-04 06:12:00,26.0,20.0,29.87,South,170,15.0,22.0,79,0.00,,,0.00,,2013-02-04 12:12:00,
2013-02-04 06:22:00,26.0,20.0,29.86,South,175,16.0,22.0,78,0.00,,,0.00,,2013-02-04 12:22:00,
2013-02-04 06:32:00,26.0,20.0,29.85,SSE,164,16.0,20.0,79,0.00,,,0.00,,2013-02-04 12:32:00,
2013-02-04 06:42:00,26.0,20.0,29.85,SSE,164,16.0,20.0,79,0.00,,,0.00,,2013-02-04 12:42:00,
2013-02-04 06:52:00,26.0,21.0,29.85,SSE,163,13.0,21.0,80,0.00,,,0.00,,2013-02-04 12:52:00,
2013-02-04 07:02:00,27.0,22.0,29.85,SSE,166,16.0,21.0,80,0.00,,,0.00,,2013-02-04 13:02:00,
2013-02-04 07:12:00,27.0,21.0,29.83,SSE,167,16.0,23.0,79,0.00,,,0.00,,2013-02-04 13:12:00,
2013-02-04 07:21:00,27.0,21.0,29.83,SSE,167,16.0,23.0,79,0.00,,,0.00,,2013-02-04 13:21:00,
2013-02-04 07:33:00,27.0,22.0,29.83,South,171,14.0,21.0,80,0.00,,,0.00,,2013-02-04 13:33:00,
2013-02-04 07:42:00,27.0,22.0,29.83,South,171,14.0,21.0,80,0.00,,,0.00,,2013-02-04 13:42:00,
2013-02-04 07:51:00,27.0,22.0,29.83,South,170,16.0,22.0,80,0.00,,,0.00,,2013-02-04 13:51:00,
2013-02-04 08:03:00,27.0,22.0,29.83,South,169,14.0,20.0,81,0.00,,,0.00,,2013-02-04 14:03:00,
2013-02-04 08:11:00,27.0,22.0,29.83,South,169,14.0,20.0,81,0.00,,,0.00,,2013-02-04 14:11:00,
2013-02-04 08:22:00,27.0,22.0,29.83,South,173,14.0,18.0,81,0.00,,,0.00,,2013-02-04 14:22:00,
2013-02-04 08:32:00,28.0,23.0,29.82,South,175,14.0,20.0,81,0.00,,,0.00,,2013-02-04 14:32:00,
2013-02-04 08:42:00,28.0,23.0,29.82,South,175,14.0,20.0,81,0.00,,,0.00,,2013-02-04 14:42:00,
2013-02-04 08:52:00,28.0,23.0,29.81,SSE,167,18.0,22.0,81,0.00,,,0.00,,2013-02-04 14:52:00,
2013-02-04 09:03:00,28.0,23.0,29.81,SSE,167,18.0,23.0,82,0.00,,,0.00,,2013-02-04 15:03:00,
2013-02-04 09:12:00,28.0,23.0,29.81,SSE,167,18.0,23.0,82,0.00,,,0.00,,2013-02-04 15:12:00,
2013-02-04 09:23:00,28.0,23.0,29.81,South,180,15.0,22.0,81,0.00,,,0.00,,2013-02-04 15:23:00,
2013-02-04 09:33:00,29.0,24.0,29.80,South,175,17.0,23.0,81,0.00,,,0.00,,2013-02-04 15:33:00,
2013-02-04 09:43:00,29.0,24.0,29.80,South,175,17.0,23.0,81,0.00,,,0.00,,2013-02-04 15:43:00,
2013-02-04 09:52:00,30.0,25.0,29.80,South,191,15.0,23.0,81,0.00,,,0.00,,2013-02-04 15:52:00,
2013-02-04 10:03:00,30.0,25.0,29.80,South,175,13.0,19.0,81,0.00,,,0.00,,2013-02-04 16:03:00,
2013-02-04 10:11:00,30.0,25.0,29.80,South,175,13.0,19.0,81,0.00,,,0.00,,2013-02-04 16:11:00,
2013-02-04 10:22:00,31.0,26.0,29.80,SSW,193,10.0,17.0,81,0.00,,,0.00,,2013-02-04 16:22:00,
2013-02-04 10:33:00,31.0,26.0,29.81,South,176,6.0,10.0,80,0.00,,,0.00,,2013-02-04 16:33:00,
2013-02-04 10:42:00,31.0,26.0,29.81,South,176,6.0,10.0,80,0.00,,,0.00,,2013-02-04 16:42:00,
2013-02-04 10:51:00,31.0,26.0,29.81,South,178,5.0,10.0,81,0.00,,,0.00,,2013-02-04 16:51:00,
2013-02-04 11:02:00,32.0,27.0,29.81,SSW,198,8.0,11.0,80,0.00,,,0.00,,2013-02-04 17:02:00,
2013-02-04 11:11:00,32.0,27.0,29.81,SSW,198,8.0,11.0,80,0.00,,,0.00,,2013-02-04 17:11:00,
2013-02-04 11:21:00,33.0,27.0,29.81,SSW,192,11.0,15.0,79,0.00,,,0.00,,2013-02-04 17:21:00,
2013-02-04 11:32:00,34.0,28.0,29.80,SSW,194,12.0,16.0,78,0.00,,,0.00,,2013-02-04 17:32:00,
2013-02-04 11:42:00,34.0,28.0,29.80,SSW,194,12.0,16.0,78,0.00,,,0.00,,2013-02-04 17:42:00,
2013-02-04 11:51:00,34.0,28.0,29.80,SSW,194,9.0,15.0,79,0.00,,,0.00,,2013-02-04 17:51:00,
2013-02-04 12:03:00,34.0,28.0,29.79,SSW,196,8.0,13.0,79,0.00,,,0.00,,2013-02-04 18:03:00,
2013-02-04 12:11:00,34.0,28.0,29.79,SSW,196,8.0,13.0,79,0.00,,,0.00,,2013-02-04 18:11:00,
2013-02-04 12:22:00,35.0,29.0,29.79,South,186,8.0,13.0,80,0.00,,,0.00,,2013-02-04 18:22:00,
2013-02-04 12:32:00,35.0,29.0,29.78,South,189,7.0,11.0,80,0.00,,,0.00,,2013-02-04 18:32:00,
2013-02-04 12:42:00,35.0,29.0,29.78,South,189,7.0,11.0,80,0.00,,,0.00,,2013-02-04 18:42:00,
2013-02-04 12:52:00,35.0,29.0,29.78,SSW,196,6.0,9.0,80,0.00,,,0.00,,2013-02-04 18:52:00,
2013-02-04 13:02:00,36.0,30.0,29.78,SSW,196,5.0,8.0,80,0.00,,,0.00,,2013-02-04 19:02:00,
2013-02-04 13:11:00,36.0,30.0,29.78,SSW,196,5.0,8.0,80,0.00,,,0.00,,2013-02-04 19:11:00,
2013-02-04 13:22:00,37.0,31.0,29.77,SW,214,7.0,9.0,78,0.00,,,0.00,,2013-02-04 19:22:00,
2013-02-04 13:32:00,38.0,31.0,29.78,SW,232,9.0,12.0,76,0.00,,,0.00,,2013-02-04 19:32:00,
2013-02-04 13:42:00,38.0,31.0,29.78,SW,232,9.0,12.0,76,0.00,,,0.00,,2013-02-04 19:42:00,
2013-02-04 13:51:00,39.0,32.0,29.77,West,263,7.0,11.0,75,0.00,,,0.00,,2013-02-04 19:51:00,
2013-02-04 14:02:00,39.0,31.0,29.77,WNW,288,8.0,13.0,73,0.00,,,0.00,,2013-02-04 20:02:00,
2013-02-04 14:12:00,39.0,31.0,29.77,WNW,288,8.0,13.0,73,0.00,,,0.00,,2013-02-04 20:12:00,
2013-02-04 14:21:00,39.0,31.0,29.77,WNW,288,8.0,13.0,73,0.00,,,0.00,,2013-02-04 20:21:00,
2013-02-04 14:32:00,39.0,31.0,29.77,NW,305,9.0,13.0,72,0.00,,,0.00,,2013-02-04 20:32:00,
2013-02-04 14:42:00,39.0,31.0,29.77,NW,305,9.0,13.0,72,0.00,,,0.00,,2013-02-04 20:42:00,
2013-02-04 14:52:00,39.0,31.0,29.78,WNW,301,7.0,13.0,73,0.00,,,0.00,,2013-02-04 20:52:00,
2013-02-04 15:02:00,38.0,30.0,29.78,NW,315,8.0,14.0,74,0.00,,,0.00,,2013-02-04 21:02:00,
2013-02-04 15:11:00,38.0,30.0,29.78,NW,315,8.0,14.0,74,0.00,,,0.00,,2013-02-04 21:11:00,
2013-02-04 15:22:00,38.0,31.0,29.79,NW,319,10.0,14.0,75,0.00,,,0.00,,2013-02-04 21:22:00,
2013-02-04 15:32:00,38.0,30.0,29.80,North,355,11.0,15.0,74,0.00,,,0.00,,2013-02-04 21:32:00,
2013-02-04 15:42:00,38.0,30.0,29.80,North,355,11.0,15.0,74,0.00,,,0.00,,2013-02-04 21:42:00,
2013-02-04 15:51:00,36.0,29.0,29.80,North,350,12.0,16.0,76,0.00,,,0.00,,2013-02-04 21:51:00,
2013-02-04 16:02:00,35.0,29.0,29.80,NNW,346,9.0,15.0,78,0.00,,,0.00,,2013-02-04 22:02:00,
2013-02-04 16:12:00,35.0,29.0,29.80,NNW,346,9.0,15.0,78,0.00,,,0.00,,2013-02-04 22:12:00,
2013-02-04 16:21:00,35.0,29.0,29.80,North,355,11.0,15.0,79,0.00,,,0.00,,2013-02-04 22:21:00,
2013-02-04 16:32:00,33.0,28.0,29.79,North,355,9.0,16.0,80,0.00,,,0.00,,2013-02-04 22:32:00,
2013-02-04 16:42:00,33.0,28.0,29.79,North,355,9.0,16.0,80,0.00,,,0.00,,2013-02-04 22:42:00,
2013-02-04 16:51:00,33.0,28.0,29.80,North,9,8.0,13.0,80,0.00,,,0.00,,2013-02-04 22:51:00,
2013-02-04 17:01:00,33.0,28.0,29.80,North,9,8.0,13.0,80,0.00,,,0.00,,2013-02-04 23:01:00,
2013-02-04 17:11:00,33.0,28.0,29.80,North,9,8.0,13.0,80,0.00,,,0.00,,2013-02-04 23:11:00,
2013-02-04 17:21:00,33.0,28.0,29.80,North,9,8.0,13.0,80,0.00,,,0.00,,2013-02-04 23:21:00,
2013-02-04 17:32:00,32.0,27.0,29.82,NNW,345,10.0,13.0,83,0.00,,,0.00,,2013-02-04 23:32:00,
2013-02-04 17:42:00,32.0,27.0,29.82,NNW,345,10.0,13.0,83,0.00,,,0.00,,2013-02-04 23:42:00,
2013-02-04 17:52:00,31.0,27.0,29.82,North,360,11.0,16.0,84,0.00,,,0.00,,2013-02-04 23:52:00,
2013-02-04 18:01:00,31.0,27.0,29.83,North,350,10.0,15.0,84,0.00,,,0.00,,2013-02-05 00:01:00,
2013-02-04 18:11:00,31.0,27.0,29.83,North,350,10.0,15.0,84,0.00,,,0.00,,2013-02-05 00:11:00,
2013-02-04 18:21:00,30.0,25.0,29.85,North,5,11.0,16.0,83,0.00,,,0.00,,2013-02-05 00:21:00,
2013-02-04 18:31:00,30.0,25.0,29.85,North,355,10.0,15.0,82,0.00,,,0.00,,2013-02-05 00:31:00,
2013-02-04 18:42:00,30.0,25.0,29.85,North,355,10.0,15.0,82,0.00,,,0.00,,2013-02-05 00:42:00,
2013-02-04 18:51:00,30.0,25.0,29.87,North,5,10.0,15.0,83,0.00,,,0.00,,2013-02-05 00:51:00,
2013-02-04 19:02:00,30.0,25.0,29.87,North,355,10.0,15.0,83,0.00,,,0.00,,2013-02-05 01:02:00,
2013-02-04 19:11:00,30.0,25.0,29.87,North,355,10.0,15.0,83,0.00,,,0.00,,2013-02-05 01:11:00,
2013-02-04 19:22:00,30.0,25.0,29.88,North,355,11.0,16.0,83,0.00,,,0.00,,2013-02-05 01:22:00,
2013-02-04 19:32:00,30.0,25.0,29.89,North,9,10.0,16.0,83,0.00,,,0.00,,2013-02-05 01:32:00,
2013-02-04 19:42:00,30.0,25.0,29.89,North,9,10.0,16.0,83,0.00,,,0.00,,2013-02-05 01:42:00,
2013-02-04 19:52:00,29.0,25.0,29.89,North,355,10.0,15.0,84,0.00,,,0.00,,2013-02-05 01:52:00,
2013-02-04 20:01:00,29.0,25.0,29.89,North,360,11.0,16.0,83,0.00,,,0.00,,2013-02-05 02:01:00,
2013-02-04 20:11:00,29.0,25.0,29.89,North,360,11.0,16.0,83,0.00,,,0.00,,2013-02-05 02:11:00,
2013-02-04 20:22:00,29.0,25.0,29.90,North,11,8.0,15.0,84,0.00,,,0.00,,2013-02-05 02:22:00,
2013-02-04 20:32:00,29.0,25.0,29.90,North,355,9.0,14.0,84,0.00,,,0.00,,2013-02-05 02:32:00,
2013-02-04 20:41:00,29.0,25.0,29.90,North,355,9.0,14.0,84,0.00,,,0.00,,2013-02-05 02:41:00,
2013-02-04 20:52:00,29.0,25.0,29.90,North,5,7.0,12.0,85,0.00,,,0.00,,2013-02-05 02:52:00,
2013-02-04 21:02:00,29.0,25.0,29.90,NNE,22,5.0,11.0,85,0.00,,,0.00,,2013-02-05 03:02:00,
2013-02-04 21:11:00,29.0,25.0,29.90,NNE,22,5.0,11.0,85,0.00,,,0.00,,2013-02-05 03:11:00,
2013-02-04 21:21:00,29.0,25.0,29.90,North,360,7.0,11.0,86,0.00,,,0.00,,2013-02-05 03:21:00,
2013-02-04 21:32:00,29.0,25.0,29.91,North,360,6.0,11.0,86,0.00,,,0.00,,2013-02-05 03:32:00,
2013-02-04 21:42:00,29.0,25.0,29.91,North,360,6.0,11.0,86,0.00,,,0.00,,2013-02-05 03:42:00,
2013-02-04 21:51:00,29.0,25.0,29.91,North,5,6.0,10.0,85,0.00,,,0.00,,2013-02-05 03:51:00,
2013-02-04 22:01:00,29.0,25.0,29.90,NNE,32,4.0,8.0,86,0.00,,,0.00,,2013-02-05 04:01:00,
2013-02-04 22:11:00,29.0,25.0,29.90,NNE,32,4.0,8.0,86,0.00,,,0.00,,2013-02-05 04:11:00,
2013-02-04 22:21:00,29.0,25.0,29.89,NNE,28,5.0,8.0,86,0.00,,,0.00,,2013-02-05 04:21:00,
2013-02-04 22:32:00,29.0,26.0,29.89,NNE,32,0.0,7.0,87,0.00,,,0.00,,2013-02-05 04:32:00,
2013-02-04 22:42:00,29.0,26.0,29.89,NNE,32,0.0,7.0,87,0.00,,,0.00,,2013-02-05 04:42:00,
2013-02-04 22:52:00,29.0,26.0,29.90,NNE,33,0.0,4.0,87,0.00,,,0.00,,2013-02-05 04:52:00,
2013-02-04 23:02:00,29.0,25.0,29.91,NNE,33,0.0,5.0,86,0.00,,,0.00,,2013-02-05 05:02:00,
2013-02-04 23:11:00,29.0,25.0,29.91,NNE,33,0.0,5.0,86,0.00,,,0.00,,2013-02-05 05:11:00,
2013-02-04 23:21:00,29.0,25.0,29.91,North,10,1.0,7.0,86,0.00,,,0.00,,2013-02-05 05:21:00,
2013-02-04 23:32:00,29.0,25.0,29.92,North,360,0.0,4.0,86,0.00,,,0.00,,2013-02-05 05:32:00,
2013-02-04 23:42:00,29.0,25.0,29.92,North,360,0.0,4.0,86,0.00,,,0.00,,2013-02-05 05:42:00,
2013-02-04 23:52:00,29.0,26.0,29.91,NNW,340,6.0,8.0,87,0.00,,,0.00,,2013-02-05 05:52:00,